QPF
0.00 0.00 0.00 0.00 0.00 0.00 0.00 0.00 0.00 0.00 0.00 0.00 0.00 0.00 0.00 0.00 0.00 0.00 0.00 0.00 0.00 0.00 0.00 0.00 0.00 0.00 0.01 0.01 0.02 0.02 0.02 0.01 0.01 0.00 0.00 0.00 0.00 0.00 0.00 0.00 0.01 0.01 0.01 0.01 0.01 0.00 0.00 0.00 0.00
0.00 0.00 0.00 0.00 0.00 0.00 0.00 0.00 0.00 0.00 0.00 0.00 0.00 0.00 0.00 0.00 0.00 0.00 0.00 0.00 0.00 0.00 0.00 0.00 0.00 0.00 0.01 0.01 0.01 0.02 0.01 0.01 0.00 0.00 0.00 0.00 0.00 0.00 0.00 0.00 0.00 0.00 0.01 0.00 0.00 0.00 0.00 0.00 0.00
0.00 0.00 0.00 0.00 0.00 0.00 0.00 0.00 0.00 0.00 0.00 0.00 0.00 0.00 0.00 0.00 0.00 0.00 0.00 0.00 0.00 0.00 0.00 0.00 0.00 0.00 0.01 0.01 0.01 0.01 0.01 0.00 0.00 0.00 0.00 0.00 0.00 0.00 0.00 0.00 0.00 0.00 0.00 0.00 0.00 0.00 0.00 0.00 0.00
0.00 0.00 0.00 0.00 0.00 0.00 0.00 0.00 0.00 0.00 0.00 0.00 0.00 0.00 0.00 0.00 0.00 0.00 0.00 0.00 0.00 0.00 0.00 0.00 0.00 0.00 0.02 0.01 0.00 0.00 0.00 0.00 0.00 0.00 0.00 0.01 0.00 0.00 0.00 0.00 0.01 0.01 0.01 0.02 0.01 0.01 0.00 0.00 0.00
0.00 0.00 0.00 0.00 0.00 0.00 0.00 0.00 0.00 0.00 0.00 0.00 0.00 0.00 0.00 0.00 0.00 0.00 0.00 0.00 0.00 0.00 0.00 0.00 0.00 0.01 0.02 0.02 0.02 0.01 0.00 0.00 0.00 0.01 0.01 0.01 0.00 0.00 0.00 0.01 0.02 0.03 0.03 0.03 0.02 0.01 0.00 0.00 0.00
0.00 0.00 0.00 0.00 0.00 0.00 0.00 0.00 0.00 0.00 0.00 0.00 0.00 0.00 0.00 0.00 0.00 0.00 0.00 0.00 0.00 0.00 0.00 0.00 0.00 0.01 0.01 0.02 0.02 0.02 0.01 0.00 0.01 0.01 0.00 0.00 0.00 0.00 0.01 0.02 0.04 0.05 0.05 0.04 0.02 0.00 0.00 0.00 0.00
0.00 0.00 0.00 0.00 0.00 0.00 0.00 0.00 0.00 0.00 0.00 0.00 0.00 0.00 0.00 0.00 0.00 0.00 0.00 0.00 0.00 0.00 0.00 0.00 0.00 0.00 0.01 0.01 0.02 0.02 0.01 0.01 0.01 0.00 0.00 0.00 0.00 0.00 0.00 0.02 0.04 0.04 0.04 0.03 0.01 0.00 0.00 0.00 0.00
0.00 0.00 0.00 0.00 0.00 0.00 0.00 0.00 0.00 0.00 0.00 0.00 0.00 0.00 0.00 0.00 0.00 0.00 0.00 0.00 0.00 0.00 0.00 0.00 0.00 0.00 0.00 0.00 0.01 0.01 0.01 0.01 0.00 0.00 0.00 0.00 0.00 0.00 0.01 0.02 0.02 0.03 0.03 0.02 0.01 0.00 0.00 0.00 0.00
0.00 0.00 0.00 0.00 0.00 0.00 0.00 0.00 0.00 0.00 0.00 0.00 0.00 0.00 0.00 0.00 0.00 0.00 0.00 0.00 0.00 0.00 0.00 0.00 0.00 0.00 0.00 0.00 0.00 0.00 0.00 0.00 0.00 0.00 0.00 0.00 0.00 0.01 0.01 0.00 0.01 0.02 0.02 0.01 0.01 0.00 0.00 0.00 0.00
0.00 0.00 0.00 0.00 0.00 0.00 0.00 0.00 0.00 0.00 0.00 0.00 0.00 0.00 0.00 0.00 0.00 0.00 0.00 0.00 0.00 0.00 0.00 0.00 0.00 0.00 0.00 0.00 0.00 0.00 0.00 0.00 0.00 0.00 0.00 0.00 0.01 0.02 0.01 0.02 0.01 0.02 0.02 0.01 0.01 0.00 0.00 0.00 0.00
0.00 0.00 0.00 0.00 0.00 0.00 0.00 0.00 0.00 0.00 0.00 0.00 0.00 0.00 0.00 0.00 0.00 0.00 0.00 0.00 0.00 0.00 0.00 0.00 0.00 0.00 0.00 0.00 0.00 0.00 0.00 0.00 0.00 0.00 0.00 0.01 0.02 0.02 0.02 0.04 0.03 0.03 0.02 0.02 0.01 0.00 0.00 0.00 0.00
0.00 0.00 0.00 0.00 0.00 0.00 0.00 0.00 0.00 0.00 0.00 0.00 0.00 0.00 0.00 0.00 0.00 0.00 0.00 0.00 0.00 0.00 0.00 0.00 0.00 0.00 0.00 0.00 0.00 0.00 0.00 0.00 0.00 0.00 0.00 0.02 0.03 0.02 0.03 0.04 0.05 0.06 0.05 0.04 0.01 0.01 0.00 0.00 0.00
0.00 0.00 0.00 0.00 0.00 0.00 0.00 0.00 0.00 0.01 0.01 0.00 0.00 0.00 0.00 0.00 0.00 0.00 0.00 0.00 0.00 0.00 0.00 0.00 0.00 0.00 0.00 0.00 0.00 0.00 0.00 0.00 0.00 0.01 0.01 0.01 0.02 0.02 0.03 0.04 0.05 0.05 0.04 0.02 0.01 0.00 0.00 0.00 0.00
0.00 0.00 0.00 0.00 0.00 0.00 0.00 0.00 0.00 0.00 0.01 0.00 0.00 0.00 0.00 0.00 0.00 0.00 0.00 0.00 0.00 0.00 0.00 0.00 0.00 0.00 0.00 0.00 0.00 0.00 0.00 0.00 0.00 0.01 0.01 0.01 0.02 0.03 0.04 0.05 0.05 0.05 0.04 0.03 0.02 0.01 0.00 0.00 0.00
0.00 0.00 0.00 0.00 0.00 0.00 0.00 0.00 0.00 0.00 0.00 0.00 0.00 0.00 0.00 0.00 0.00 0.00 0.00 0.00 0.00 0.00 0.00 0.00 0.00 0.00 0.00 0.00 0.00 0.00 0.00 0.01 0.01 0.01 0.01 0.02 0.03 0.05 0.06 0.07 0.07 0.06 0.05 0.04 0.03 0.02 0.01 0.01 0.00
0.00 0.00 0.00 0.00 0.00 0.00 0.00 0.00 0.00 0.00 0.00 0.00 0.00 0.00 0.00 0.00 0.00 0.00 0.00 0.00 0.00 0.00 0.00 0.00 0.00 0.00 0.00 0.00 0.00 0.00 0.01 0.01 0.01 0.02 0.03 0.03 0.04 0.07 0.09 0.09 0.08 0.07 0.07 0.07 0.06 0.06 0.06 0.04 0.03
0.00 0.00 0.00 0.00 0.00 0.00 0.00 0.00 0.00 0.00 0.00 0.00 0.00 0.00 0.00 0.00 0.00 0.00 0.00 0.00 0.00 0.00 0.00 0.00 0.00 0.00 0.00 0.00 0.00 0.01 0.01 0.01 0.03 0.03 0.04 0.06 0.09 0.11 0.13 0.14 0.15 0.15 0.14 0.13 0.12 0.11 0.09 0.08 0.07
0.00 0.00 0.00 0.00 0.00 0.00 0.00 0.00 0.00 0.00 0.00 0.00 0.00 0.00 0.00 0.00 0.00 0.00 0.00 0.00 0.00 0.00 0.00 0.00 0.00 0.00 0.00 0.01 0.01 0.01 0.04 0.07 0.09 0.11 0.13 0.16 0.21 0.25 0.28 0.27 0.27 0.23 0.20 0.17 0.14 0.14 0.12 0.11 0.09
0.00 0.00 0.00 0.00 0.00 0.00 0.00 0.00 0.00 0.00 0.00 0.00 0.00 0.00 0.00 0.00 0.00 0.00 0.00 0.00 0.00 0.00 0.00 0.00 0.00 0.00 0.01 0.04 0.07 0.13 0.24 0.30 0.33 0.36 0.38 0.41 0.42 0.45 0.44 0.36 0.31 0.28 0.25 0.21 0.17 0.14 0.12 0.10 0.09
0.00 0.00 0.00 0.00 0.00 0.00 0.00 0.00 0.00 0.00 0.00 0.00 0.00 0.00 0.00 0.00 0.00 0.00 0.00 0.00 0.00 0.00 0.00 0.00 0.00 0.02 0.05 0.13 0.24 0.38 0.50 0.59 0.62 0.59 0.58 0.59 0.61 0.63 0.59 0.51 0.47 0.46 0.36 0.22 0.14 0.10 0.09 0.09 0.07
0.00 0.00 0.00 0.00 0.00 0.00 0.00 0.00 0.00 0.00 0.00 0.00 0.00 0.00 0.00 0.00 0.00 0.00 0.00 0.00 0.00 0.00 0.00 0.00 0.00 0.04 0.10 0.22 0.41 0.60 0.78 0.96 0.99 0.90 0.79 0.74 0.72 0.71 0.74 0.69 0.57 0.42 0.26 0.16 0.12 0.10 0.08 0.05 0.02
0.00 0.00 0.00 0.00 0.00 0.00 0.00 0.00 0.00 0.00 0.00 0.00 0.00 0.00 0.00 0.00 0.00 0.00 0.00 0.00 0.00 0.00 0.00 0.00 0.01 0.04 0.12 0.29 0.50 0.69 0.91 1.14 1.25 1.08 0.90 0.74 0.65 0.65 0.68 0.65 0.47 0.29 0.17 0.10 0.08 0.05 0.02 0.01 0.00
0.00 0.00 0.00 0.00 0.00 0.00 0.00 0.00 0.00 0.00 0.00 0.00 0.00 0.00 0.00 0.00 0.00 0.00 0.00 0.00 0.00 0.00 0.00 0.00 0.02 0.06 0.18 0.35 0.53 0.68 0.82 0.95 0.97 0.82 0.66 0.57 0.50 0.44 0.39 0.30 0.18 0.10 0.06 0.04 0.02 0.01 0.00 0.00 0.00
0.00 0.00 0.00 0.00 0.00 0.00 0.00 0.00 0.00 0.00 0.00 0.00 0.00 0.00 0.00 0.00 0.00 0.00 0.00 0.00 0.00 0.00 0.01 0.01 0.03 0.10 0.19 0.31 0.45 0.53 0.59 0.61 0.55 0.47 0.41 0.39 0.38 0.29 0.17 0.09 0.04 0.02 0.01 0.00 0.00 0.00 0.00 0.00 0.00
0.00 0.00 0.00 0.00 0.00 0.00 0.00 0.00 0.00 0.00 0.00 0.00 0.00 0.01 0.01 0.01 0.01 0.01 0.01 0.01 0.01 0.01 0.01 0.02 0.05 0.13 0.19 0.25 0.31 0.34 0.37 0.34 0.30 0.30 0.30 0.28 0.22 0.12 0.05 0.01 0.01 0.00 0.00 0.00 0.00 0.00 0.00 0.00 0.00
0.00 0.00 0.00 0.00 0.00 0.00 0.00 0.00 0.00 0.00 0.00 0.00 0.01 0.01 0.01 0.01 0.01 0.02 0.02 0.02 0.02 0.02 0.03 0.03 0.06 0.11 0.14 0.16 0.18 0.19 0.17 0.17 0.18 0.20 0.18 0.13 0.07 0.03 0.01 0.00 0.00 0.00 0.00 0.00 0.00 0.00 0.00 0.00 0.00
0.00 0.00 0.00 0.00 0.00 0.00 0.00 0.00 0.00 0.00 0.00 0.01 0.01 0.01 0.02 0.02 0.02 0.02 0.02 0.02 0.01 0.02 0.02 0.03 0.06 0.08 0.09 0.10 0.11 0.10 0.09 0.11 0.11 0.09 0.06 0.04 0.02 0.01 0.00 0.00 0.00 0.00 0.00 0.00 0.00 0.00 0.00 0.00 0.00
0.00 0.00 0.00 0.00 0.00 0.00 0.00 0.00 0.00 0.00 0.00 0.01 0.01 0.01 0.02 0.02 0.02 0.02 0.02 0.02 0.02 0.02 0.02 0.03 0.04 0.04 0.05 0.05 0.05 0.06 0.06 0.06 0.05 0.04 0.03 0.02 0.01 0.01 0.00 0.00 0.00 0.00 0.00 0.00 0.00 0.00 0.00 0.00 0.00
0.00 0.00 0.00 0.00 0.00 0.00 0.00 0.00 0.00 0.00 0.00 0.01 0.01 0.02 0.02 0.02 0.02 0.02 0.02 0.02 0.02 0.02 0.02 0.02 0.02 0.03 0.04 0.04 0.05 0.05 0.05 0.04 0.03 0.03 0.02 0.01 0.01 0.00 0.00 0.00 0.00 0.00 0.00 0.00 0.00 0.00 0.00 0.00 0.00
0.00 0.00 0.00 0.00 0.00 0.00 0.00 0.00 0.00 0.01 0.01 0.01 0.01 0.02 0.03 0.02 0.02 0.02 0.02 0.02 0.02 0.02 0.02 0.02 0.02 0.02 0.03 0.03 0.03 0.02 0.02 0.02 0.02 0.01 0.00 0.00 0.00 0.00 0.00 0.00 0.00 0.00 0.00 0.00 0.00 0.00 0.00 0.00 0.00
MSLP
1013.15 1013.53 1013.89 1014.13 1014.17 1013.98 1013.57 1013.05 1012.50 1012.05 1011.77 1011.71 1011.82 1012.04 1012.27 1012.44 1012.47 1012.38 1012.21 1012.04 1011.96 1012.06 1012.37 1012.85 1013.46 1014.08 1014.62 1015.01 1015.24 1015.33 1015.34 1015.36 1015.46 1015.69 1016.04 1016.47 1016.93 1017.33 1017.62 1017.78 1017.83 1017.82 1017.81 1017.85 1017.98 1018.18 1018.44 1018.68 1018.86
1013.21 1013.68 1014.09 1014.35 1014.36 1014.11 1013.62 1012.99 1012.34 1011.78 1011.41 1011.25 1011.29 1011.47 1011.67 1011.83 1011.87 1011.81 1011.68 1011.57 1011.57 1011.75 1012.13 1012.70 1013.38 1014.08 1014.69 1015.16 1015.45 1015.58 1015.63 1015.66 1015.75 1015.95 1016.26 1016.64 1017.03 1017.38 1017.63 1017.77 1017.82 1017.83 1017.85 1017.94 1018.12 1018.36 1018.63 1018.87 1019.01
1013.29 1013.80 1014.23 1014.46 1014.43 1014.11 1013.56 1012.86 1012.14 1011.52 1011.09 1010.89 1010.90 1011.04 1011.22 1011.38 1011.44 1011.40 1011.31 1011.25 1011.30 1011.54 1011.98 1012.61 1013.36 1014.12 1014.81 1015.35 1015.70 1015.90 1015.99 1016.04 1016.13 1016.30 1016.55 1016.86 1017.19 1017.47 1017.68 1017.80 1017.86 1017.90 1017.98 1018.12 1018.34 1018.61 1018.88 1019.09 1019.19
1013.40 1013.90 1014.29 1014.47 1014.37 1014.00 1013.40 1012.67 1011.92 1011.29 1010.85 1010.64 1010.64 1010.77 1010.96 1011.12 1011.20 1011.19 1011.14 1011.12 1011.21 1011.48 1011.96 1012.62 1013.40 1014.21 1014.95 1015.54 1015.96 1016.22 1016.36 1016.44 1016.54 1016.68 1016.89 1017.15 1017.41 1017.64 1017.81 1017.92 1018.00 1018.09 1018.21 1018.41 1018.66 1018.94 1019.20 1019.37 1019.40
1013.52 1013.97 1014.28 1014.38 1014.21 1013.78 1013.15 1012.41 1011.68 1011.07 1010.66 1010.48 1010.49 1010.65 1010.85 1011.03 1011.14 1011.16 1011.14 1011.15 1011.27 1011.56 1012.05 1012.71 1013.49 1014.31 1015.06 1015.69 1016.16 1016.46 1016.65 1016.77 1016.89 1017.04 1017.22 1017.44 1017.66 1017.85 1018.01 1018.13 1018.23 1018.36 1018.53 1018.76 1019.03 1019.31 1019.53 1019.65 1019.62
1013.63 1013.99 1014.20 1014.20 1013.95 1013.48 1012.83 1012.11 1011.41 1010.85 1010.49 1010.35 1010.40 1010.58 1010.82 1011.03 1011.16 1011.22 1011.24 1011.29 1011.43 1011.72 1012.19 1012.83 1013.57 1014.36 1015.09 1015.72 1016.21 1016.55 1016.78 1016.95 1017.10 1017.27 1017.46 1017.67 1017.87 1018.06 1018.21 1018.34 1018.48 1018.64 1018.84 1019.09 1019.36 1019.62 1019.80 1019.86 1019.77
1013.71 1013.96 1014.06 1013.95 1013.62 1013.11 1012.45 1011.76 1011.11 1010.61 1010.30 1010.20 1010.28 1010.49 1010.76 1011.00 1011.18 1011.29 1011.36 1011.44 1011.60 1011.89 1012.33 1012.91 1013.60 1014.31 1014.99 1015.59 1016.06 1016.42 1016.69 1016.91 1017.10 1017.31 1017.52 1017.75 1017.97 1018.17 1018.34 1018.49 1018.64 1018.82 1019.04 1019.29 1019.54 1019.76 1019.90 1019.91 1019.78
1013.73 1013.86 1013.84 1013.64 1013.24 1012.69 1012.04 1011.37 1010.77 1010.31 1010.04 1009.97 1010.08 1010.31 1010.59 1010.87 1011.09 1011.26 1011.39 1011.52 1011.71 1012.00 1012.41 1012.93 1013.53 1014.16 1014.76 1015.29 1015.73 1016.09 1016.38 1016.63 1016.87 1017.13 1017.39 1017.65 1017.90 1018.12 1018.31 1018.48 1018.65 1018.84 1019.05 1019.28 1019.51 1019.69 1019.79 1019.76 1019.61
1013.64 1013.68 1013.56 1013.27 1012.83 1012.25 1011.61 1010.97 1010.39 1009.96 1009.71 1009.65 1009.75 1009.98 1010.28 1010.59 1010.86 1011.09 1011.29 1011.49 1011.71 1012.01 1012.40 1012.86 1013.37 1013.91 1014.42 1014.87 1015.27 1015.60 1015.90 1016.18 1016.47 1016.77 1017.08 1017.38 1017.66 1017.91 1018.12 1018.30 1018.48 1018.66 1018.85 1019.06 1019.26 1019.41 1019.48 1019.44 1019.29
1013.46 1013.42 1013.22 1012.88 1012.40 1011.82 1011.18 1010.56 1010.00 1009.57 1009.31 1009.24 1009.32 1009.54 1009.84 1010.17 1010.49 1010.79 1011.06 1011.32 1011.61 1011.93 1012.30 1012.72 1013.17 1013.62 1014.04 1014.42 1014.77 1015.07 1015.36 1015.66 1015.98 1016.32 1016.67 1017.01 1017.32 1017.59 1017.82 1018.00 1018.17 1018.34 1018.52 1018.70 1018.87 1019.00 1019.06 1019.02 1018.90
1013.19 1013.09 1012.85 1012.47 1011.98 1011.40 1010.78 1010.16 1009.61 1009.17 1008.89 1008.77 1008.83 1009.01 1009.30 1009.65 1010.01 1010.37 1010.71 1011.05 1011.40 1011.76 1012.15 1012.55 1012.96 1013.35 1013.71 1014.04 1014.33 1014.61 1014.89 1015.20 1015.53 1015.90 1016.28 1016.64 1016.98 1017.26 1017.49 1017.68 1017.84 1017.99 1018.15 1018.31 1018.47 1018.59 1018.66 1018.66 1018.58
1012.88 1012.74 1012.48 1012.09 1011.60 1011.03 1010.42 1009.81 1009.25 1008.79 1008.47 1008.31 1008.32 1008.47 1008.74 1009.08 1009.47 1009.88 1010.29 1010.70 1011.11 1011.52 1011.94 1012.36 1012.76 1013.14 1013.48 1013.78 1014.06 1014.33 1014.61 1014.91 1015.26 1015.64 1016.03 1016.41 1016.75 1017.04 1017.27 1017.45 1017.60 1017.74 1017.88 1018.03 1018.19 1018.33 1018.42 1018.46 1018.44
1012.57 1012.42 1012.14 1011.76 1011.28 1010.73 1010.13 1009.52 1008.94 1008.45 1008.10 1007.89 1007.85 1007.96 1008.20 1008.54 1008.93 1009.37 1009.82 1010.27 1010.74 1011.21 1011.68 1012.14 1012.58 1012.99 1013.36 1013.69 1013.99 1014.28 1014.57 1014.88 1015.23 1015.61 1016.00 1016.38 1016.72 1017.01 1017.24 1017.41 1017.55 1017.68 1017.82 1017.97 1018.14 1018.30 1018.44 1018.53 1018.57
1012.32 1012.16 1011.89 1011.52 1011.05 1010.51 1009.91 1009.30 1008.71 1008.20 1007.80 1007.55 1007.47 1007.53 1007.74 1008.04 1008.42 1008.85 1009.30 1009.78 1010.28 1010.80 1011.33 1011.87 1012.39 1012.89 1013.34 1013.75 1014.11 1014.45 1014.78 1015.11 1015.47 1015.85 1016.23 1016.60 1016.93 1017.22 1017.44 1017.61 1017.74 1017.87 1018.01 1018.17 1018.35 1018.54 1018.72 1018.87 1018.97
1012.17 1012.00 1011.73 1011.37 1010.92 1010.38 1009.79 1009.16 1008.56 1008.02 1007.59 1007.31 1007.18 1007.21 1007.36 1007.62 1007.95 1008.33 1008.76 1009.22 1009.73 1010.28 1010.87 1011.50 1012.13 1012.76 1013.34 1013.87 1014.35 1014.77 1015.16 1015.53 1015.91 1016.28 1016.65 1017.01 1017.34 1017.61 1017.83 1018.00 1018.13 1018.25 1018.39 1018.56 1018.76 1018.98 1019.21 1019.40 1019.56
1012.10 1011.94 1011.68 1011.33 1010.88 1010.35 1009.75 1009.11 1008.49 1007.93 1007.48 1007.17 1007.00 1006.98 1007.08 1007.27 1007.53 1007.84 1008.19 1008.60 1009.08 1009.65 1010.29 1011.01 1011.77 1012.55 1013.30 1013.99 1014.60 1015.14 1015.61 1016.04 1016.43 1016.81 1017.17 1017.52 1017.83 1018.10 1018.31 1018.48 1018.61 1018.74 1018.88 1019.05 1019.26 1019.51 1019.76 1020.00 1020.20
1012.11 1011.95 1011.70 1011.37 1010.93 1010.39 1009.78 1009.13 1008.49 1007.92 1007.45 1007.12 1006.93 1006.86 1006.90 1007.01 1007.17 1007.38 1007.63 1007.96 1008.38 1008.93 1009.61 1010.42 1011.31 1012.24 1013.16 1014.02 1014.79 1015.46 1016.02 1016.50 1016.93 1017.31 1017.67 1018.00 1018.30 1018.57 1018.78 1018.95 1019.09 1019.21 1019.35 1019.52 1019.73 1019.98 1020.26 1020.53 1020.76
1012.14 1012.00 1011.78 1011.46 1011.04 1010.50 1009.89 1009.23 1008.58 1007.99 1007.52 1007.17 1006.96 1006.86 1006.84 1006.87 1006.92 1007.01 1007.14 1007.36 1007.70 1008.21 1008.90 1009.77 1010.77 1011.84 1012.92 1013.94 1014.86 1015.64 1016.30 1016.83 1017.28 1017.67 1018.03 1018.36 1018.66 1018.92 1019.14 1019.32 1019.46 1019.58 1019.71 1019.88 1020.08 1020.33 1020.62 1020.90 1021.16
1012.12 1012.03 1011.85 1011.58 1011.18 1010.66 1010.05 1009.39 1008.74 1008.15 1007.68 1007.33 1007.11 1006.98 1006.92 1006.87 1006.83 1006.79 1006.80 1006.90 1007.15 1007.59 1008.27 1009.15 1010.22 1011.40 1012.60 1013.75 1014.79 1015.67 1016.39 1016.97 1017.44 1017.84 1018.20 1018.53 1018.84 1019.11 1019.35 1019.55 1019.70 1019.83 1019.95 1020.10 1020.30 1020.54 1020.81 1021.10 1021.37
1012.03 1012.00 1011.89 1011.67 1011.32 1010.84 1010.25 1009.60 1008.97 1008.40 1007.94 1007.61 1007.40 1007.27 1007.17 1007.07 1006.95 1006.81 1006.70 1006.69 1006.83 1007.19 1007.81 1008.69 1009.78 1011.01 1012.28 1013.51 1014.61 1015.55 1016.32 1016.93 1017.41 1017.81 1018.18 1018.52 1018.85 1019.16 1019.43 1019.66 1019.83 1019.97 1020.10 1020.24 1020.41 1020.63 1020.89 1021.17 1021.44
1011.82 1011.88 1011.86 1011.72 1011.44 1011.01 1010.47 1009.86 1009.25 1008.73 1008.31 1008.02 1007.84 1007.73 1007.64 1007.51 1007.34 1007.13 1006.93 1006.81 1006.84 1007.11 1007.66 1008.48 1009.54 1010.76 1012.03 1013.27 1014.39 1015.35 1016.13 1016.74 1017.23 1017.64 1018.02 1018.39 1018.76 1019.12 1019.44 1019.71 1019.93 1020.09 1020.23 1020.36 1020.51 1020.71 1020.94 1021.20 1021.45
1011.49 1011.65 1011.74 1011.70 1011.50 1011.15 1010.67 1010.13 1009.59 1009.12 1008.77 1008.55 1008.43 1008.37 1008.31 1008.20 1008.02 1007.77 1007.50 1007.30 1007.24 1007.41 1007.85 1008.58 1009.56 1010.71 1011.93 1013.12 1014.21 1015.13 1015.89 1016.49 1016.98 1017.41 1017.82 1018.23 1018.65 1019.07 1019.46 1019.80 1020.06 1020.27 1020.42 1020.55 1020.69 1020.85 1021.05 1021.27 1021.49
1011.08 1011.34 1011.53 1011.59 1011.49 1011.23 1010.84 1010.38 1009.93 1009.55 1009.29 1009.16 1009.13 1009.15 1009.16 1009.10 1008.94 1008.69 1008.39 1008.13 1007.99 1008.06 1008.39 1009.00 1009.85 1010.88 1011.99 1013.09 1014.10 1014.97 1015.69 1016.27 1016.76 1017.20 1017.65 1018.11 1018.60 1019.09 1019.56 1019.97 1020.30 1020.54 1020.72 1020.85 1020.97 1021.10 1021.26 1021.44 1021.61
1010.61 1010.95 1011.22 1011.38 1011.37 1011.22 1010.93 1010.58 1010.24 1009.97 1009.82 1009.81 1009.89 1010.02 1010.12 1010.14 1010.04 1009.81 1009.52 1009.23 1009.02 1009.00 1009.21 1009.68 1010.39 1011.27 1012.24 1013.22 1014.13 1014.93 1015.59 1016.15 1016.63 1017.09 1017.58 1018.10 1018.65 1019.22 1019.76 1020.24 1020.63 1020.92 1021.13 1021.26 1021.37 1021.46 1021.57 1021.69 1021.81
1010.12 1010.50 1010.83 1011.06 1011.15 1011.09 1010.92 1010.69 1010.47 1010.33 1010.32 1010.44 1010.65 1010.90 1011.11 1011.23 1011.21 1011.04 1010.77 1010.46 1010.22 1010.11 1010.21 1010.54 1011.10 1011.83 1012.66 1013.51 1014.31 1015.02 1015.63 1016.16 1016.65 1017.13 1017.65 1018.21 1018.83 1019.45 1020.06 1020.60 1021.03 1021.36 1021.58 1021.72 1021.80 1021.86 1021.92 1021.98 1022.04
1009.65 1010.02 1010.38 1010.66 1010.82 1010.85 1010.79 1010.69 1010.60 1010.61 1010.74 1011.00 1011.34 1011.72 1012.05 1012.27 1012.34 1012.24 1012.01 1011.72 1011.45 1011.29 1011.29 1011.51 1011.93 1012.52 1013.21 1013.94 1014.64 1015.28 1015.85 1016.35 1016.83 1017.33 1017.87 1018.47 1019.12 1019.78 1020.42 1020.99 1021.45 1021.79 1022.02 1022.14 1022.20 1022.22 1022.23 1022.24 1022.24
1009.21 1009.55 1009.90 1010.20 1010.40 1010.52 1010.56 1010.57 1010.63 1010.78 1011.05 1011.45 1011.92 1012.42 1012.87 1013.19 1013.35 1013.32 1013.15 1012.89 1012.62 1012.42 1012.37 1012.50 1012.82 1013.30 1013.89 1014.51 1015.14 1015.72 1016.24 1016.73 1017.21 1017.71 1018.25 1018.85 1019.50 1020.17 1020.81 1021.37 1021.83 1022.17 1022.38 1022.48 1022.51 1022.49 1022.45 1022.42 1022.38
1008.84 1009.12 1009.43 1009.72 1009.95 1010.13 1010.26 1010.39 1010.58 1010.86 1011.27 1011.78 1012.37 1012.98 1013.52 1013.94 1014.17 1014.22 1014.11 1013.90 1013.65 1013.46 1013.39 1013.48 1013.74 1014.14 1014.66 1015.22 1015.79 1016.33 1016.83 1017.30 1017.76 1018.24 1018.77 1019.35 1019.97 1020.60 1021.20 1021.73 1022.16 1022.46 1022.64 1022.71 1022.71 1022.65 1022.58 1022.51 1022.44
1008.57 1008.77 1009.03 1009.29 1009.53 1009.75 1009.96 1010.19 1010.49 1010.89 1011.41 1012.03 1012.72 1013.41 1014.02 1014.51 1014.82 1014.93 1014.89 1014.74 1014.54 1014.39 1014.33 1014.42 1014.66 1015.05 1015.53 1016.06 1016.60 1017.12 1017.60 1018.05 1018.48 1018.93 1019.42 1019.94 1020.50 1021.07 1021.60 1022.07 1022.45 1022.70 1022.84 1022.87 1022.83 1022.74 1022.64 1022.54 1022.45
1008.45 1008.57 1008.76 1008.99 1009.22 1009.47 1009.73 1010.05 1010.44 1010.94 1011.55 1012.25 1013.01 1013.75 1014.42 1014.95 1015.31 1015.49 1015.52 1015.43 1015.31 1015.21 1015.21 1015.34 1015.61 1016.00 1016.48 1017.01 1017.54 1018.05 1018.51 1018.93 1019.33 1019.74 1020.16 1020.62 1021.10 1021.58 1022.04 1022.43 1022.74 1022.94 1023.03 1023.03 1022.95 1022.84 1022.71 1022.60 1022.49
Thickness
5774 5782 5789 5790 5785 5783 5785 5798 5804 5806 5811 5817 5815 5810 5805 5801 5795 5787 5804 5812 5808 5802 5792 5780 5775 5771 5769 5767 5765 5764 5763 5761 5759 5757 5755 5753 5751 5749 5747 5745 5744 5743 5742 5742 5742 5741 5740 5739 5738
5777 5781 5782 5782 5772 5768 5784 5800 5801 5806 5812 5816 5813 5808 5804 5804 5806 5803 5805 5807 5804 5799 5790 5782 5773 5769 5766 5763 5761 5760 5759 5757 5755 5753 5751 5749 5747 5745 5743 5741 5740 5739 5739 5739 5738 5737 5736 5735 5734
5775 5778 5775 5773 5766 5767 5781 5799 5803 5811 5815 5812 5810 5810 5806 5802 5804 5805 5807 5806 5803 5797 5790 5780 5771 5767 5763 5760 5758 5756 5755 5753 5751 5749 5746 5744 5743 5741 5739 5737 5736 5736 5735 5735 5734 5733 5732 5731 5730
5773 5770 5770 5762 5762 5779 5787 5797 5804 5807 5811 5813 5811 5804 5809 5809 5809 5810 5808 5806 5802 5796 5790 5779 5770 5765 5762 5758 5755 5753 5751 5750 5748 5745 5743 5740 5738 5736 5734 5733 5732 5732 5731 5731 5730 5728 5727 5727 5726
5771 5765 5756 5755 5766 5784 5794 5800 5803 5802 5807 5810 5809 5802 5801 5808 5813 5811 5807 5805 5801 5796 5790 5779 5769 5765 5760 5757 5754 5751 5749 5747 5745 5742 5739 5737 5734 5732 5730 5729 5728 5728 5727 5727 5726 5725 5724 5723 5723
5760 5759 5747 5752 5768 5784 5792 5802 5802 5802 5809 5812 5808 5804 5803 5809 5808 5807 5807 5803 5801 5795 5790 5779 5769 5764 5760 5756 5753 5750 5748 5745 5742 5739 5737 5734 5732 5729 5728 5726 5725 5725 5724 5723 5722 5721 5720 5720 5720
5755 5751 5749 5757 5764 5773 5787 5803 5801 5803 5807 5812 5816 5805 5805 5807 5809 5808 5806 5803 5801 5795 5790 5781 5772 5765 5759 5756 5752 5749 5747 5744 5741 5738 5735 5733 5730 5728 5726 5724 5723 5722 5721 5720 5719 5718 5717 5716 5716
5762 5753 5749 5757 5758 5769 5793 5801 5807 5808 5810 5825 5821 5807 5805 5808 5810 5807 5805 5802 5799 5795 5790 5783 5777 5770 5763 5758 5752 5749 5746 5743 5740 5737 5734 5731 5729 5726 5724 5723 5721 5720 5719 5717 5716 5715 5714 5713 5713
5755 5742 5747 5757 5760 5773 5793 5796 5808 5817 5817 5818 5822 5821 5821 5818 5810 5803 5799 5796 5795 5792 5789 5784 5779 5774 5769 5764 5756 5749 5745 5741 5738 5735 5732 5730 5731 5730 5725 5723 5720 5718 5716 5715 5713 5712 5711 5711 5711
5746 5740 5753 5768 5774 5781 5789 5794 5803 5806 5807 5809 5814 5820 5820 5814 5807 5800 5798 5794 5792 5789 5788 5785 5782 5776 5771 5767 5759 5753 5749 5744 5741 5740 5735 5733 5733 5731 5728 5722 5718 5715 5714 5712 5710 5709 5709 5711 5714
5748 5747 5760 5766 5774 5779 5784 5792 5803 5802 5802 5813 5814 5815 5814 5810 5807 5803 5801 5799 5796 5792 5787 5788 5782 5777 5773 5768 5762 5757 5753 5749 5744 5741 5737 5734 5732 5728 5725 5721 5717 5714 5713 5714 5710 5710 5713 5712 5710
5747 5752 5759 5765 5774 5776 5782 5791 5798 5805 5814 5829 5830 5827 5816 5811 5810 5807 5804 5801 5799 5794 5789 5787 5782 5776 5772 5769 5764 5758 5754 5750 5746 5740 5736 5733 5729 5727 5724 5719 5717 5714 5713 5712 5712 5711 5709 5707 5706
5743 5749 5756 5764 5771 5778 5783 5789 5796 5808 5823 5829 5830 5827 5820 5817 5816 5814 5811 5807 5802 5795 5791 5788 5782 5775 5769 5764 5761 5757 5753 5750 5744 5739 5734 5730 5727 5724 5721 5717 5713 5712 5711 5709 5707 5707 5704 5703 5702
5748 5749 5754 5762 5769 5777 5779 5791 5798 5810 5823 5823 5823 5823 5824 5823 5820 5817 5811 5807 5803 5797 5792 5789 5781 5775 5767 5761 5757 5754 5751 5745 5743 5737 5732 5727 5724 5720 5717 5713 5709 5707 5705 5705 5703 5702 5699 5699 5697
5749 5742 5748 5759 5767 5777 5781 5783 5798 5814 5820 5818 5820 5822 5824 5826 5824 5820 5817 5811 5807 5799 5793 5787 5781 5774 5766 5760 5755 5751 5747 5742 5739 5735 5729 5723 5720 5715 5711 5708 5703 5700 5697 5695 5694 5692 5691 5689 5688
5737 5734 5736 5759 5768 5776 5771 5777 5801 5813 5815 5815 5819 5821 5820 5822 5824 5824 5822 5815 5810 5803 5794 5787 5782 5775 5766 5760 5753 5749 5744 5738 5734 5729 5725 5719 5714 5708 5703 5699 5695 5690 5687 5685 5684 5683 5681 5678 5677
5731 5730 5736 5753 5765 5772 5772 5782 5798 5809 5811 5811 5815 5818 5818 5819 5821 5824 5822 5816 5809 5803 5795 5787 5782 5775 5767 5758 5751 5745 5738 5732 5728 5723 5718 5713 5706 5700 5694 5688 5683 5679 5677 5675 5674 5671 5670 5667 5664
5728 5735 5738 5746 5759 5763 5767 5778 5791 5802 5805 5808 5812 5815 5816 5817 5820 5822 5820 5817 5810 5803 5795 5787 5780 5773 5765 5756 5747 5739 5732 5725 5719 5713 5707 5701 5695 5689 5683 5677 5672 5669 5667 5664 5662 5660 5658 5655 5653
5731 5733 5735 5745 5755 5756 5761 5769 5782 5794 5797 5802 5806 5810 5811 5815 5820 5821 5819 5816 5809 5802 5794 5787 5779 5771 5762 5753 5744 5734 5725 5716 5708 5702 5697 5691 5685 5678 5673 5668 5663 5660 5658 5656 5654 5652 5648 5646 5644
5716 5719 5727 5737 5746 5748 5754 5761 5778 5785 5789 5793 5796 5799 5802 5805 5810 5812 5815 5813 5808 5800 5793 5786 5778 5770 5760 5752 5742 5732 5720 5708 5700 5692 5685 5680 5675 5669 5665 5662 5658 5653 5650 5648 5645 5642 5641 5639 5636
5708 5714 5723 5728 5739 5743 5741 5749 5766 5778 5784 5786 5788 5790 5793 5794 5797 5802 5806 5807 5805 5799 5793 5787 5778 5768 5758 5748 5737 5724 5713 5702 5691 5686 5678 5672 5667 5661 5657 5655 5651 5647 5644 5640 5637 5636 5634 5632 5627
5703 5719 5722 5722 5722 5735 5736 5738 5765 5767 5769 5772 5775 5778 5779 5783 5789 5795 5799 5800 5800 5798 5793 5784 5774 5764 5753 5743 5732 5722 5710 5699 5690 5682 5675 5666 5659 5655 5651 5647 5644 5639 5635 5632 5630 5628 5627 5624 5621
5712 5724 5720 5720 5719 5721 5728 5729 5760 5759 5756 5759 5760 5761 5762 5766 5773 5779 5785 5789 5791 5791 5786 5779 5767 5756 5746 5736 5728 5718 5709 5700 5690 5680 5671 5660 5652 5648 5643 5639 5635 5631 5628 5624 5621 5619 5618 5616 5614
5714 5712 5711 5713 5716 5704 5724 5725 5743 5756 5748 5746 5746 5743 5744 5749 5756 5761 5766 5770 5772 5774 5771 5763 5753 5743 5735 5727 5720 5713 5705 5694 5685 5674 5665 5655 5646 5641 5636 5632 5627 5624 5620 5616 5612 5609 5606 5604 5599
5704 5696 5691 5693 5697 5708 5730 5723 5740 5735 5734 5731 5728 5728 5729 5733 5738 5742 5745 5747 5749 5750 5749 5745 5738 5729 5722 5716 5709 5703 5695 5687 5678 5669 5659 5648 5640 5633 5628 5624 5620 5616 5611 5606 5602 5598 5594 5590 5586
5698 5699 5692 5694 5703 5717 5716 5721 5732 5728 5723 5721 5719 5717 5716 5717 5720 5722 5725 5727 5729 5729 5729 5727 5722 5715 5709 5703 5697 5690 5684 5676 5667 5658 5649 5640 5634 5626 5619 5614 5610 5605 5600 5595 5590 5587 5582 5578 5575
5696 5699 5713 5704 5708 5711 5722 5721 5714 5716 5712 5710 5708 5705 5701 5702 5704 5706 5708 5710 5712 5712 5712 5711 5707 5701 5696 5690 5683 5676 5670 5663 5654 5645 5638 5630 5622 5615 5609 5604 5598 5592 5587 5582 5578 5575 5570 5565 5563
5709 5707 5701 5692 5685 5689 5709 5713 5719 5708 5702 5698 5695 5692 5690 5690 5690 5691 5693 5694 5695 5695 5695 5694 5691 5686 5680 5675 5669 5663 5656 5649 5642 5634 5625 5618 5611 5604 5598 5592 5586 5580 5575 5570 5566 5562 5556 5551 5547
5694 5695 5696 5700 5705 5697 5697 5713 5717 5710 5700 5690 5684 5681 5679 5678 5678 5678 5679 5680 5681 5681 5680 5678 5674 5670 5665 5660 5654 5648 5641 5634 5627 5620 5612 5604 5597 5591 5584 5578 5573 5567 5562 5557 5552 5549 5542 5537 5532
5701 5699 5695 5687 5690 5698 5701 5698 5701 5700 5692 5683 5674 5670 5667 5666 5666 5666 5666 5667 5667 5666 5664 5662 5658 5654 5649 5644 5638 5631 5625 5618 5612 5604 5596 5589 5583 5576 5570 5564 5558 5552 5547 5542 5537 5532 5527 5522 5516